Torna al catalogo

NOAA 16 DEB

LostSSO
NORAD 41714·DEBRIS·🇺🇸 United States

Lanciato Sep 21, 2000 da Vandenberg Space Force Base

Loading…

Prossimi Passaggi (prossime 24 ore)

TLE

ObsoletoSource: Space-Track

Epoca: Mar 24, 2023, 06:53 UTC

1 41714U 00055PU  23083.28740264  .00042277  00000-0  28342-1 0  9998
2 41714  98.9622 102.1923 0113167 224.4816 134.7219 13.97485590347629

Traccia NOAA 16 DEB in tempo reale con AllMySat

Download on the App Store